Terminal Aerodrome Forecast
Issued by NWS Chicago, IL

Home | Current Version | Previous Version | Graphics & Text | Print | Product List | Glossary On
Versions: 1 2 3 4 5 6 7 8 9 10 11 12 13 14 15 16 17 18 19 20 21 22 23 24 25 26 27 28 29 30 31 32 33
000
FTUS43 KLOT 160500
TAFRFD
TAF
KRFD 160522Z 1606/1706 33005KT 6SM BCFG BR SKC
      TEMPO 1606/1610 2SM BR BCFG
     FM161000 VRB02KT 2SM BR BCFG SKC
     FM161330 32004KT P6SM SKC
     FM161700 30006KT P6SM SCT030=

USA.gov is the U.S. government's official web portal to all federal, state and local government web resources and services.